User: anonymous   Login
Location: Unspecified
(0.0000°N, 0.0000°E)
Time: 07:19:05
(UTC+00:00)
Language:

ATS 3 - Orbit

View from above orbital plane
View from above orbital plane
View from above satellite
View from above satellite

Ground track
Ground track

The orbit is defined by the following mean orbital elements,

1 03029U          26106.56224251 +.00000000 +00000-0 +00000-0 0 00009
2 03029   3.0207  79.0716 0015132  30.1511 192.6137  1.00271949    03
Epoch (UTC): 16 April 2026 13:29:37
Eccentricity: 0.0015132
inclination: 3.0207°
perigee height: 35723 km
apogee height: 35850 km
right ascension of ascending node: 79.0716°
argument of perigee: 30.1511°
revolutions per day: 1.00271949
mean anomaly at epoch: 192.6137°

The dashed part of the orbit path shows where the satellite is in the earth's shadow,  

DLR